CAPE
0 0 0 0 0 0 0 2 3 2 1 0 0 1 4 3 0 0 0 0 0 0 0 0 0 0 0 0 0 0 0 0 0 0 0 0 0 0 0 0 0 0 0 0 0
0 0 0 0 0 0 0 0 2 3 3 1 0 1 1 2 0 0 0 0 0 0 0 0 0 0 0 0 0 0 0 0 0 0 0 0 0 0 0 0 0 1 0 0 0
0 0 0 0 0 0 0 0 0 1 3 2 1 0 1 2 0 0 0 0 0 0 0 0 0 0 0 0 0 0 0 0 0 0 0 0 0 0 0 0 9 0 0 0 0
0 0 0 0 0 0 0 0 0 0 2 1 1 0 0 0 0 0 0 0 0 0 0 0 0 0 0 0 0 0 0 0 0 0 0 0 0 0 0 0 0 0 0 0 0
0 0 0 0 0 0 0 0 0 0 0 1 1 0 0 0 0 0 0 0 0 0 0 0 0 0 0 0 0 0 0 0 0 0 0 0 0 0 0 0 0 11 0 0 0
0 0 0 0 0 0 0 0 0 0 1 2 1 0 0 0 0 0 0 0 0 0 0 0 0 0 0 0 0 0 0 0 0 0 0 0 0 0 0 0 0 0 0 0 0
0 0 0 0 0 0 0 0 0 0 2 1 1 1 0 0 0 0 0 0 0 0 0 0 0 0 0 0 0 0 0 0 0 0 0 0 0 0 0 0 0 0 0 0 0
0 0 0 0 0 0 0 1 0 2 1 1 1 0 0 0 0 0 0 0 0 0 0 0 0 0 0 0 0 0 0 0 0 0 0 0 0 0 0 0 0 0 0 0 0
0 0 0 0 1 0 2 1 0 1 2 1 0 0 0 0 0 0 0 0 0 0 0 0 0 0 0 0 0 0 0 0 0 0 0 0 0 0 0 0 0 0 0 0 0
0 0 0 0 1 3 3 0 0 0 0 0 0 0 0 0 0 0 0 0 0 0 0 0 0 0 0 0 0 0 0 0 0 0 0 0 0 0 0 0 0 0 0 0 0
0 0 0 0 0 4 1 0 0 0 0 0 0 0 0 0 0 0 0 0 0 0 0 0 0 0 0 0 0 0 0 0 0 0 0 0 0 0 0 0 0 0 0 0 0
0 0 0 0 0 3 2 0 0 0 0 0 0 0 0 0 0 0 0 0 0 0 0 0 0 0 0 0 0 0 0 0 0 0 0 0 0 0 0 0 0 0 0 0 0
0 0 0 0 0 0 0 0 0 0 0 0 0 0 0 0 0 0 0 0 0 0 0 0 0 0 0 0 0 0 0 0 0 0 0 0 0 0 0 0 0 0 0 0 0
0 0 0 0 0 0 0 0 0 0 0 0 0 0 0 0 0 0 0 0 0 0 0 0 0 0 0 0 0 0 0 0 0 0 0 0 0 0 0 0 0 0 0 0 0
0 0 0 1 0 0 0 0 0 0 0 0 0 0 0 0 0 0 0 0 0 0 0 0 0 0 0 0 0 0 0 0 0 0 0 0 0 0 0 0 0 0 0 0 0
0 0 1 0 0 0 0 0 0 0 0 1 0 0 0 0 0 0 0 0 0 0 0 0 0 0 0 0 0 0 0 0 0 0 0 0 0 0 0 0 0 0 0 0 0
0 0 0 1 0 0 0 0 0 0 12 1 0 0 0 0 0 0 0 0 0 0 0 0 0 0 0 0 0 0 1 0 0 0 0 0 0 0 0 0 0 0 0 0 0
0 0 0 0 0 0 0 0 0 30 14 2 0 0 0 0 0 0 0 0 0 0 0 0 0 2 2 2 7 8 7 0 0 0 0 0 0 0 0 0 0 0 0 0 0
0 0 0 0 0 0 0 0 0 60 3 0 0 0 4 2 0 0 0 0 0 0 0 0 0 11 1 5 2 6 2 0 0 0 0 0 0 0 0 0 0 0 0 0 0
0 0 0 0 0 0 0 0 20 67 0 0 0 0 0 3 35 5 4 1 0 0 0 0 0 0 2 0 0 12 0 0 0 0 0 0 0 0 0 0 0 0 0 0 0
0 0 0 0 0 0 0 0 49 109 5 0 0 0 0 0 0 0 1 0 0 0 1 0 0 0 0 0 4 0 0 0 0 0 0 0 0 0 0 0 0 0 0 0 0
0 0 3 0 0 0 0 23 62 1 9 0 0 0 0 0 0 0 0 0 0 0 0 0 0 0 0 0 0 0 0 0 0 0 0 0 0 0 0 0 0 0 0 0 0
0 0 0 0 0 0 0 49 33 3 0 0 0 0 0 0 0 0 0 0 0 0 0 0 0 0 0 0 0 0 5 1 0 0 0 0 0 0 0 0 0 0 0 0 0
0 0 1 0 0 0 0 0 0 0 0 0 0 0 0 0 0 0 0 0 0 1 0 0 0 0 0 0 0 0 0 0 0 0 0 0 0 0 0 0 0 0 0 0 0
0 1 0 0 0 0 0 0 0 0 0 0 0 0 0 0 0 0 0 0 0 4 0 0 0 0 0 0 0 0 0 0 0 0 0 0 0 0 0 0 0 0 0 0 0
0 0 0 0 0 0 0 0 0 0 0 0 0 0 0 0 0 0 0 0 0 0 3 0 0 0 0 0 0 0 0 0 0 0 0 0 0 0 0 0 0 0 0 0 0
0 0 0 0 0 0 0 0 0 0 0 0 0 0 0 0 0 0 0 0 0 0 4 21 1 0 0 0 0 0 0 0 0 0 0 0 0 0 0 0 0 0 0 0 0
CIN
-0 -0 -0 -0 -0 -0 -0 -0 -0 -0 -0 -0 -0 -0 -0 -0 -0 -0 -0 -0 -0 -0 -0 -0 -0 -0 -0 -0 -0 -0 -0 -0 -0 -0 -0 -0 -0 -0 -0 -0 -0 -0 -0 -0 -0
-0 -0 -0 -0 -0 -0 -0 -0 -0 -0 -0 -0 -0 -0 -0 -0 -0 -0 -0 -0 -0 -0 -0 -0 -0 -0 -0 -0 -0 -0 -0 -0 -0 -0 -0 -0 -0 -0 -0 -0 -0 -0 -0 -0 -0
-0 -0 -0 -0 -0 -0 -0 -0 -0 -0 -0 -0 -0 -0 -0 -0 -0 -0 -0 -0 -0 -0 -0 -0 -0 -0 -0 -0 -0 -0 -0 -0 -0 -0 -0 -0 -0 -0 -0 -0 -4 -0 -0 -0 -0
-0 -0 -0 -0 -0 -0 -0 -0 -0 -0 -0 -0 -0 -0 -0 -0 -0 -0 -0 -0 -0 -0 -0 -0 -0 -0 -0 -0 -0 -0 -0 -0 -0 -0 -0 -0 -0 -0 -0 -0 -0 -0 -0 -0 -0
-0 -0 -0 -0 -0 -0 -0 -0 -0 -0 -0 -0 -0 -0 -0 -0 -0 -0 -0 -0 -0 -0 -0 -0 -0 -0 -0 -0 -0 -0 -0 -0 -0 -0 -0 -0 -0 -0 -0 -0 -0 -16 -0 -0 -0
-0 -0 -0 -0 -0 -0 -0 -0 -0 -0 -0 -0 -0 -0 -0 -0 -0 -0 -0 -0 -0 -0 -0 -0 -0 -0 -0 -0 -0 -0 -0 -0 -0 -0 -0 -0 -0 -0 -0 -0 -0 -0 -0 -0 -0
-0 -0 -0 -0 -0 -0 -0 -0 -0 -0 -0 -0 -0 -0 -0 -0 -0 -0 -0 -0 -0 -0 -0 -0 -0 -0 -0 -0 -0 -0 -0 -0 -0 -0 -0 -0 -0 -0 -0 -0 -0 -0 -0 -0 -0
-0 -0 -0 -0 -0 -0 -0 -0 -0 -0 -0 -0 -0 -0 -0 -0 -0 -0 -0 -0 -0 -0 -0 -0 -0 -0 -0 -0 -0 -0 -0 -0 -0 -0 -0 -0 -0 -0 -0 -0 -0 -0 -0 -0 -0
-0 -0 -0 -0 -0 -0 -0 -0 -0 -0 -0 -0 -0 -0 -0 -0 -0 -0 -0 -0 -0 -0 -0 -0 -0 -0 -0 -0 -0 -0 -0 -0 -0 -0 -0 -0 -0 -0 -0 -0 -0 -0 -0 -0 -0
-0 -0 -0 -0 -0 -0 -0 -0 -0 -0 -0 -0 -0 -0 -0 -0 -0 -0 -0 -0 -0 -0 -0 -0 -0 -0 -0 -0 -0 -0 -0 -0 -0 -0 -0 -0 -0 -0 -0 -0 -0 -0 -0 -0 -0
-0 -0 -0 -0 -0 -0 -0 -0 -0 -0 -0 -0 -0 -0 -0 -0 -0 -0 -0 -0 -0 -0 -0 -0 -0 -0 -0 -0 -0 -0 -0 -0 -0 -0 -0 -0 -0 -0 -0 -0 -0 -0 -0 -0 -0
-0 -0 -0 -0 -0 -0 -0 -0 -0 -0 -0 -0 -0 -0 -0 -0 -0 -0 -0 -0 -0 -0 -0 -0 -0 -0 -0 -0 -0 -0 -0 -0 -0 -0 -0 -0 -0 -0 -0 -0 -0 -0 -0 -0 -0
-0 -0 -0 -0 -0 -0 -0 -0 -0 -0 -0 -0 -0 -0 -0 -0 -0 -0 -0 -0 -0 -0 -0 -0 -0 -0 -0 -0 -0 -0 -0 -0 -0 -0 -0 -0 -0 -0 -0 -0 -0 -0 -0 -0 -0
-0 -0 -0 -0 -0 -0 -0 -0 -0 -0 -0 -0 -0 -0 -0 -0 -0 -0 -0 -0 -0 -0 -0 -0 -0 -0 -0 -0 -0 -0 -0 -0 -0 -0 -0 -0 -0 -0 -0 -0 -0 -0 -0 -0 -0
-0 -0 -0 -0 -0 -0 -0 -0 -0 -0 -0 -0 -0 -0 -0 -0 -0 -0 -0 -0 -0 -0 -0 -0 -0 -0 -0 -0 -0 -0 -0 -0 -0 -0 -0 -0 -0 -0 -0 -0 -0 -0 -0 -0 -0
-0 -0 -0 -0 -0 -0 -0 -0 -0 -0 -2 -1 -0 -0 -0 -0 -0 -0 -0 -0 -0 -0 -0 -0 -0 -0 -0 -0 -0 -0 -0 -0 -0 -0 -0 -0 -0 -0 -0 -0 -0 -0 -0 -0 -0
-0 -0 -0 -0 -0 -0 -0 -0 -0 -0 -14 -8 -0 -0 -0 -0 -0 -0 -0 -0 -0 -0 -0 -0 -0 -0 -0 -0 -0 -0 -11 -0 -0 -0 -0 -0 -0 -0 -0 -0 -0 -0 -0 -0 -0
-0 -0 -0 -0 -0 -0 -0 -0 -0 -26 -2 -14 -0 -0 -0 -0 -0 -0 -0 -0 -0 -0 -0 -0 -0 -30 -57 -33 -42 -38 -32 -0 -0 -0 -0 -0 -0 -0 -0 -0 -0 -0 -0 -0 -0
-0 -0 -0 -0 -0 -0 -0 -0 -2 -16 -1 -0 -0 -0 -12 -2 -0 -3 -1 -0 -0 -0 -0 -0 -0 -64 -54 -55 -25 -46 -24 -0 -0 -0 -0 -0 -0 -0 -0 -0 -0 -0 -0 -0 -0
-0 -0 -0 -0 -0 -0 -0 -0 -21 -9 -0 -0 -0 -0 -0 -33 -6 -14 -10 -23 -2 -0 -13 -8 -0 -0 -36 -0 -0 -31 -0 -0 -0 -0 -0 -0 -1 -0 -0 -0 -0 -0 -0 -0 -0
-0 -0 -0 -0 -0 -0 -0 -0 -47 -20 -19 -0 -0 -0 -0 -0 -0 -0 -5 -0 -0 -0 -54 -10 -0 -0 -0 -0 -17 -2 -0 -0 -0 -0 -0 -0 -0 -0 -0 -0 -0 -0 -0 -0 -0
-0 -0 -48 -0 -0 -0 -0 -76 -28 -2 -16 -0 -0 -0 -0 -0 -0 -0 -0 -0 -0 -0 -0 -0 -0 -0 -0 -0 -23 -2 -0 -0 -0 -0 -0 -0 -0 -0 -0 -0 -0 -0 -0 -0 -0
-0 -0 -0 -0 -0 -0 -0 -36 -29 -9 -0 -0 -0 -0 -0 -0 -0 -0 -0 -0 -0 -0 -0 -0 -0 -0 -0 -0 -0 -0 -13 -10 -0 -0 -0 -0 -0 -0 -0 -0 -0 -0 -0 -0 -0
-0 -0 -149 -0 -0 -35 -0 -0 -0 -0 -0 -0 -0 -0 -0 -0 -0 -0 -0 -0 -21 -26 -0 -0 -0 -0 -0 -0 -0 -0 -0 -0 -0 -0 -0 -0 -0 -0 -0 -0 -0 -0 -0 -0 -0
-0 -92 -0 -0 -0 -0 -0 -0 -0 -0 -0 -0 -0 -0 -0 -0 -0 -11 -0 -0 -0 -35 -0 -0 -0 -0 -0 -0 -0 -0 -0 -0 -0 -0 -0 -0 -0 -0 -0 -0 -0 -0 -0 -0 -0
-0 -0 -0 -0 -0 -0 -0 -0 -0 -0 -0 -0 -0 -0 -0 -0 -0 -0 -0 -0 -0 -0 -14 -0 -0 -0 -0 -0 -0 -0 -0 -0 -0 -0 -0 -0 -0 -0 -0 -0 -0 -0 -0 -0 -0
-0 -0 -0 -0 -0 -0 -0 -0 -0 -0 -0 -0 -0 -0 -0 -0 -0 -0 -0 -0 -0 -0 -21 -10 -10 -0 -0 -0 -0 -0 -0 -0 -1 -0 -0 -0 -0 -0 -0 -0 -0 -0 -0 -0 -0
Wind_Speed
31 32 33 33 33 32 32 31 30 31 30 30 29 28 28 29 30 26 27 17 14 9 14 16 16 15 14 15 15 17 29 35 35 36 38 39 40 38 38 40 21 18 11 13 13
33 33 33 34 34 34 34 33 32 31 31 30 29 29 28 28 28 29 21 14 8 9 12 15 14 13 15 15 16 18 28 33 29 30 34 39 42 41 40 43 46 37 25 20 18
33 33 34 34 35 35 35 35 34 32 31 31 30 28 28 28 25 18 17 6 4 8 11 13 13 15 14 12 12 17 25 23 23 21 29 40 43 42 46 43 38 45 36 29 24
32 32 33 33 35 37 36 36 35 34 33 31 30 28 28 21 22 17 18 6 4 7 9 11 9 12 12 13 11 19 17 15 15 19 35 36 36 40 36 46 33 57 32 27 28
33 34 33 36 34 27 28 35 35 34 33 32 29 26 22 22 24 20 16 8 6 7 7 4 5 7 10 10 9 12 8 8 8 11 40 38 40 42 35 29 31 31 40 49 35
35 35 35 34 20 17 21 23 24 32 33 31 27 22 19 26 17 14 9 9 9 5 5 0 6 5 15 17 13 10 6 6 9 21 39 38 38 31 34 29 27 28 26 42 38
34 8 30 30 20 19 20 20 21 25 31 29 21 16 19 13 14 10 7 11 6 2 4 2 3 13 18 21 12 14 11 5 18 19 38 34 32 43 29 27 34 34 34 40 41
16 8 19 17 19 22 24 23 19 21 22 10 13 14 21 15 13 21 16 17 10 4 11 15 8 10 12 16 18 16 11 5 3 1 26 29 43 33 37 35 36 33 30 29 35
9 17 20 20 17 17 19 23 21 5 12 9 10 13 21 23 12 6 4 7 11 8 14 21 18 18 18 16 16 12 9 7 24 25 27 28 39 40 36 31 32 34 27 20 25
9 24 25 25 24 20 25 22 15 14 13 10 12 16 12 13 10 7 4 4 8 14 15 16 18 18 16 11 5 6 5 10 26 27 30 36 45 40 34 30 34 28 21 21 24
39 38 34 27 38 33 28 20 17 16 12 10 10 9 16 13 8 9 1 4 11 17 5 11 9 9 14 6 7 4 10 12 33 28 24 27 42 41 34 28 28 27 22 23 30
39 38 38 37 29 21 17 15 14 20 25 2 3 2 4 15 13 7 5 6 10 12 15 14 15 5 13 22 17 12 22 25 28 27 24 24 22 35 32 26 24 27 32 34 35
39 40 40 39 31 19 15 13 12 23 21 20 6 6 6 5 7 3 5 3 10 11 14 12 7 14 8 26 19 5 16 29 27 27 24 22 22 19 25 27 30 28 29 31 31
39 40 39 39 19 20 15 16 14 14 19 16 9 12 8 8 15 1 6 4 9 8 8 17 25 19 25 26 17 22 28 29 17 14 29 17 31 30 28 33 31 29 20 13 10
41 40 37 31 19 17 14 26 27 14 15 10 10 12 10 6 12 6 7 4 5 6 10 12 22 26 26 21 22 12 27 16 18 22 25 28 31 31 33 33 21 13 10 8 7
42 41 38 24 12 5 15 27 17 16 17 10 9 9 9 5 11 8 7 6 8 10 18 22 28 25 21 26 19 20 16 18 20 22 32 24 30 27 25 16 10 8 7 7 7
42 42 33 15 13 14 22 17 16 16 18 13 12 8 7 7 10 5 2 3 11 14 19 21 18 22 23 25 21 19 22 23 22 20 21 20 24 27 26 16 8 6 9 10 11
44 40 22 8 6 14 17 15 16 15 16 14 18 7 10 10 15 3 6 3 4 10 17 18 21 18 21 21 21 20 18 19 22 20 20 19 19 20 21 9 9 10 12 13 13
42 29 20 13 4 10 14 16 15 16 22 18 19 19 16 13 13 11 12 16 16 3 13 16 20 20 23 22 20 22 22 19 22 25 25 19 13 14 14 14 13 16 18 20 20
34 26 20 8 7 11 15 18 18 19 19 18 17 19 19 19 16 16 15 18 17 15 14 17 23 22 22 20 18 19 19 26 22 21 19 19 17 14 19 19 15 19 16 19 21
26 23 14 6 7 14 18 17 22 22 25 16 15 18 19 19 17 17 17 18 17 19 15 14 19 22 22 20 20 19 18 16 17 19 23 24 21 14 24 20 15 18 20 22 25
23 18 12 8 13 16 16 14 18 22 29 15 15 17 17 19 20 20 20 20 18 18 18 18 18 22 23 17 19 15 16 24 24 26 23 24 28 23 17 16 17 20 24 26 30
28 21 18 10 18 17 19 17 18 22 19 15 17 19 18 18 19 20 19 19 22 19 17 17 22 23 24 19 18 20 20 20 19 24 27 28 26 15 16 18 23 25 29 33 36
21 20 18 15 17 19 20 19 18 19 17 17 18 19 20 20 19 19 18 21 21 18 15 15 19 22 24 23 21 23 23 26 19 27 29 29 29 24 24 25 27 31 35 38 38
18 19 18 19 19 23 21 20 22 17 19 19 19 18 18 19 21 18 20 21 22 22 18 17 22 23 28 28 26 21 22 21 19 28 33 36 29 24 24 27 31 35 37 39 44
19 22 22 24 23 23 21 21 15 16 17 20 18 17 19 19 21 23 24 21 21 21 19 19 23 22 29 26 28 32 29 28 25 34 39 26 25 24 26 30 35 37 38 43 47
20 22 20 22 22 21 22 20 17 15 17 16 17 20 22 21 21 24 23 20 19 21 21 20 20 21 26 23 25 28 27 22 18 22 26 29 25 27 30 34 38 38 40 46 48
Wind_Direction
347 341 336 330 328 330 329 333 335 330 322 314 312 306 304 298 292 297 290 306 315 297 312 314 314 317 315 306 298 307 291 286 283 278 279 271 255 256 271 253 275 274 279 292 295
340 338 337 333 330 323 323 323 325 328 326 318 309 305 303 303 297 286 297 306 309 319 312 312 317 322 315 315 309 293 292 291 288 285 278 268 253 257 270 264 249 245 262 291 291
341 341 337 336 332 326 317 316 316 318 324 322 311 303 302 302 301 298 304 336 318 310 312 316 315 323 317 322 312 310 294 299 296 282 276 260 253 261 266 260 247 238 257 277 281
346 345 341 340 334 322 315 312 311 308 313 317 317 305 299 310 292 298 301 342 333 325 318 317 327 331 330 323 320 313 308 299 296 286 267 260 260 262 268 256 252 241 263 276 273
344 342 343 332 303 283 282 297 298 298 304 309 311 313 314 299 287 287 305 328 331 324 314 322 325 338 332 345 332 320 313 300 283 279 250 253 258 261 268 269 256 249 264 256 276
339 326 314 321 289 277 273 270 267 282 289 300 312 321 317 291 307 294 314 321 316 318 314 307 343 2 326 332 333 336 302 260 221 211 250 258 261 263 259 269 263 260 260 252 263
345 325 298 296 281 278 275 270 261 259 277 306 323 333 316 313 315 317 315 309 319 18 327 181 332 327 322 322 354 348 342 237 212 211 255 263 270 253 268 273 264 263 262 257 261
6 337 284 284 283 281 280 273 259 248 243 360 341 336 309 325 198 272 295 290 296 299 295 302 328 326 323 328 329 337 354 7 258 255 228 272 257 264 267 271 269 268 270 278 277
323 284 284 285 285 284 281 274 259 261 8 33 12 347 313 297 310 165 274 299 292 299 296 290 305 308 310 315 322 349 4 25 277 276 278 271 244 249 263 269 267 268 270 279 282
321 287 288 287 288 285 287 272 13 15 24 37 357 341 347 341 337 311 290 177 296 302 298 291 302 301 301 308 300 357 29 337 267 268 266 253 238 244 259 258 257 273 269 273 281
317 311 300 290 328 348 355 1 355 351 359 350 349 352 339 12 32 0 53 295 292 294 277 303 306 308 296 293 307 350 189 208 261 276 295 273 225 234 248 265 267 271 274 275 271
325 310 309 307 294 3 19 19 16 347 317 325 200 187 162 321 341 23 11 297 297 293 292 295 294 283 298 279 294 197 221 226 282 290 298 293 277 244 255 264 277 273 267 265 263
327 323 318 312 294 17 30 37 34 349 336 321 14 356 333 5 342 41 90 327 301 294 289 291 286 302 308 281 296 230 302 274 294 294 296 301 287 283 273 281 283 292 287 277 273
329 326 327 322 7 2 19 18 24 27 346 338 24 358 4 356 324 70 128 37 316 307 298 293 273 290 285 283 290 301 282 278 316 325 244 317 267 273 285 282 292 292 295 291 294
318 324 328 338 349 357 22 329 318 18 357 23 22 22 34 51 360 8 117 359 339 319 313 296 283 285 286 293 304 296 289 299 302 296 287 278 272 275 284 291 300 312 317 314 312
314 318 323 342 357 31 5 304 357 347 339 353 11 11 11 45 326 3 90 347 341 314 298 287 276 290 297 285 309 309 308 303 301 298 268 291 266 292 292 306 318 328 333 337 338
311 301 319 343 355 5 339 354 339 329 336 340 343 357 36 355 322 355 77 343 318 312 300 296 298 295 295 287 296 301 296 291 294 295 294 299 286 288 295 312 310 322 326 327 318
309 299 335 349 8 344 345 343 318 332 339 343 335 350 329 333 318 125 320 342 331 324 313 310 297 302 298 297 289 295 299 291 290 292 292 301 293 292 313 336 334 324 328 326 328
315 334 335 341 49 354 338 317 318 319 318 322 316 321 321 330 317 310 302 292 305 202 311 318 305 308 297 295 291 288 291 294 290 290 289 289 305 313 317 315 315 315 314 318 325
326 331 330 351 49 350 327 311 308 318 320 322 317 322 311 309 311 314 306 310 307 319 320 311 309 306 300 303 295 288 295 284 282 281 285 292 290 295 307 306 312 313 328 325 327
332 328 336 15 7 329 316 314 301 300 300 320 320 320 313 306 316 311 308 308 316 315 325 322 307 308 305 297 290 288 288 287 285 281 286 287 288 302 299 315 315 316 320 323 323
329 328 325 334 314 318 316 329 312 298 270 315 326 326 321 313 303 302 302 308 317 314 311 312 317 302 299 312 299 299 290 279 276 280 286 290 284 298 310 315 318 317 320 322 314
318 312 309 319 306 305 310 318 309 299 304 312 317 318 323 318 309 303 306 315 314 314 313 310 298 296 298 312 311 291 288 286 288 288 280 281 285 323 314 310 312 319 317 310 308
319 311 306 302 312 305 306 303 308 315 315 317 317 320 315 312 311 304 308 311 314 318 325 321 301 291 292 300 307 293 290 282 287 278 283 281 282 295 300 305 313 314 310 306 311
315 305 307 296 294 298 301 308 298 309 308 312 314 323 319 313 305 305 306 309 308 308 316 314 298 294 291 296 296 295 291 296 282 275 277 274 287 293 304 309 307 307 308 308 310
308 301 299 292 295 296 298 298 305 312 313 302 313 323 320 311 304 299 303 308 307 311 307 308 299 303 291 299 294 284 287 288 288 276 272 287 288 305 307 306 307 308 310 310 310
306 303 300 293 293 294 298 294 306 311 313 322 320 317 311 309 308 302 304 309 309 307 306 306 304 301 295 304 302 292 290 289 293 297 285 279 292 301 303 306 306 307 313 312 313